This is the latest recevied weather packets stored in our database for station/object WB4ZUT. If no packets are shown the sender has not sent any weather packets the latest 10 day(s).
| Time | Temp. | Humidity | Pressure | Rain* | Wind** | Luminosity | Snow |
|---|---|---|---|---|---|---|---|
| 1777759538 | 13.33° C | 61% | 1018.1 hPa | 0 mm | - | 81 W/m² | - |
| 1777759235 | 13.89° C | 59% | 1018.2 hPa | 0 mm | - | 120 W/m² | - |
| 1777758932 | 14.44° C | 58% | 1018 hPa | 0 mm | - | 140 W/m² | - |
| 1777758629 | 13.89° C | 57% | 1018.1 hPa | 0 mm | - | 453 W/m² | - |
| 1777758326 | 15° C | 58% | 1018.1 hPa | 0 mm | - | 191 W/m² | - |
| 1777758024 | 15° C | 55% | 1018.2 hPa | 0 mm | - | 481 W/m² | - |
| 1777757720 | 15° C | 57% | 1018.1 hPa | 0 mm | - | 478 W/m² | - |
| 1777757418 | 14.44° C | 58% | 1017.7 hPa | 0 mm | - | 449 W/m² | - |
| 1777757117 | 13.89° C | 58% | 1018 hPa | 0 mm | - | 470 W/m² | - |
| 1777756814 | 14.44° C | 58% | 1018.1 hPa | 0 mm | - | 175 W/m² | - |
| 1777756509 | 15° C | 58% | 1018.1 hPa | 0 mm | - | 126 W/m² | - |
| 1777756207 | 15° C | 57% | 1017.7 hPa | 0 mm | - | 507 W/m² | - |
| 1777755904 | 15.56° C | 57% | 1018 hPa | 0 mm | - | 517 W/m² | - |
| 1777755601 | 15° C | 58% | 1017.8 hPa | 0 mm | - | 582 W/m² | - |
| 1777755296 | 14.44° C | 60% | 1018.1 hPa | 0 mm | - | 549 W/m² | - |
| 1777754994 | 14.44° C | 58% | 1017.7 hPa | 0 mm | - | 379 W/m² | - |
| 1777754691 | 13.89° C | 59% | 1018 hPa | 0 mm | - | 587 W/m² | - |
| 1777754389 | 14.44° C | 58% | 1018 hPa | 0 mm | - | 573 W/m² | - |
| 1777754086 | 15° C | 62% | 1017.8 hPa | 0 mm | - | 440 W/m² | - |
| 1777753782 | 13.89° C | 63% | 1017.8 hPa | 0 mm | - | 657 W/m² | - |
| 1777753479 | 13.89° C | 64% | 1018.2 hPa | 0 mm | - | 331 W/m² | - |
| 1777753177 | 15° C | 63% | 1018.2 hPa | 0 mm | - | 737 W/m² | - |
| 1777752873 | 14.44° C | 64% | 1018.1 hPa | 0 mm | - | 588 W/m² | - |
| 1777752570 | 15° C | 60% | 1018.2 hPa | 0 mm | - | 702 W/m² | - |
| 1777752265 | 13.89° C | 67% | 1018.3 hPa | 0 mm | - | 517 W/m² | - |
* Rain latest hour (hover to see other rain measurements)
** Current wind speed in m/s (hover to see current wind gust speed)